Probability
0 0 0 0 0 0 0 0 0 0 2 4 7 9 7 6 7 10 13 17 19 24 32 39 43 44 41 34 28 23 20 17 16 14 12 10 8 8 8 6 4 3 3 3
0 0 0 0 0 0 0 0 0 1 3 5 7 7 6 6 8 10 12 17 20 24 33 41 45 46 43 39 33 28 25 21 19 17 14 11 10 10 9 8 5 3 3 3
0 0 0 0 0 0 0 0 0 2 3 4 5 5 5 5 7 10 14 17 20 24 31 40 45 47 47 43 38 34 29 25 23 20 16 13 11 11 10 9 6 4 3 4
0 0 0 0 0 0 0 0 0 1 1 1 2 3 3 3 4 10 15 19 23 25 29 36 43 47 47 43 39 34 29 26 23 21 18 14 12 11 10 8 6 4 4 5
0 0 0 0 0 0 0 0 0 0 0 0 1 1 1 1 2 8 15 22 26 27 29 34 40 44 44 41 38 33 29 25 22 19 17 14 12 9 9 8 7 5 5 5
0 0 0 0 0 0 0 0 0 0 0 0 0 0 0 0 1 7 15 21 25 28 31 34 36 39 41 40 38 35 32 27 23 19 16 14 12 9 9 9 8 6 5 5
0 0 0 0 0 0 0 0 0 0 0 0 0 0 0 0 1 6 13 19 24 29 32 33 34 36 38 41 41 39 35 30 25 22 18 16 14 12 11 11 9 7 5 5
0 0 0 0 0 0 0 0 0 0 0 0 0 0 0 0 1 5 11 17 23 28 30 29 31 33 36 41 42 39 36 32 28 27 23 19 17 15 13 11 9 8 6 6
0 0 0 0 0 0 0 0 0 0 0 0 0 0 0 1 3 6 11 16 20 25 27 26 25 27 33 38 39 37 35 32 31 30 27 23 20 18 15 13 11 9 8 8
0 0 0 0 0 0 0 0 0 0 0 0 0 0 1 3 5 7 11 17 22 24 25 24 22 22 27 32 33 34 35 34 32 31 28 24 22 20 19 17 15 13 11 10
0 0 0 0 0 0 0 0 0 0 0 0 0 0 1 3 5 8 12 19 24 25 25 22 20 22 26 29 29 30 33 35 35 33 29 27 25 23 21 19 18 15 13 12
0 0 0 0 0 0 0 0 0 0 0 0 0 1 1 3 7 11 16 21 25 26 25 22 23 26 28 28 28 29 33 37 37 35 32 31 30 28 25 22 20 17 14 12
0 0 0 0 0 0 0 0 0 0 0 0 0 1 3 6 11 17 22 26 28 29 30 28 28 29 30 29 28 30 35 39 39 37 36 35 34 32 28 25 22 19 15 13
0 0 0 0 0 0 0 0 0 0 0 0 1 2 5 9 16 22 28 31 34 36 37 34 33 33 32 31 30 32 37 41 41 41 40 37 34 32 29 27 24 19 15 14
0 0 0 0 0 0 0 0 0 0 0 1 4 6 8 12 20 28 34 38 41 44 42 38 37 38 38 36 35 35 38 40 42 45 43 37 32 28 26 25 22 16 13 13
0 0 0 0 0 0 0 0 1 2 2 5 8 10 12 16 25 34 42 46 48 48 45 41 39 40 41 41 42 41 40 39 41 46 45 38 29 24 23 20 18 14 12 12
0 0 0 0 0 0 0 1 2 3 5 9 14 16 18 22 31 41 47 50 51 50 46 43 41 40 39 43 45 45 43 40 41 44 45 38 28 21 19 17 16 15 14 13
1 1 1 0 0 0 2 4 6 6 8 13 19 24 27 32 39 46 49 50 51 50 47 45 44 41 40 42 44 44 42 40 39 40 40 34 25 19 17 16 16 15 13 11
1 1 1 0 0 0 3 7 10 10 12 17 25 34 41 46 51 52 50 50 53 54 52 48 47 46 45 43 43 42 40 38 36 34 33 29 23 19 17 17 16 15 12 11
0 0 0 0 0 0 4 9 12 14 17 23 31 42 50 55 56 54 52 54 59 60 57 53 52 51 49 45 43 41 38 34 31 29 26 24 21 18 18 17 16 14 13 12
0 0 0 0 0 1 6 12 14 17 23 29 37 47 55 57 56 56 57 61 65 65 61 58 56 54 50 46 43 40 34 29 26 24 22 21 19 17 16 16 14 14 13 12
0 0 0 0 1 4 10 15 18 23 29 37 45 54 60 62 60 59 60 63 65 64 61 57 55 52 48 45 42 37 30 25 23 23 21 18 16 15 14 13 13 13 14 14
1 2 4 6 8 12 17 22 26 30 37 44 53 59 63 64 62 60 60 60 59 58 56 52 48 46 44 42 39 34 29 25 24 23 19 15 12 11 11 11 11 13 14 15
3 6 11 15 19 22 25 30 36 40 44 50 54 58 61 61 59 57 56 54 53 53 51 47 44 41 39 36 33 30 26 25 24 21 16 11 9 9 10 9 10 11 13 14
5 10 17 20 24 26 28 32 38 43 48 52 54 56 56 56 54 51 49 48 48 48 45 43 41 38 35 31 26 22 22 21 21 18 13 9 9 9 8 8 8 9 11 12
6 12 18 20 23 26 28 29 33 40 47 52 55 55 53 51 48 46 44 43 45 43 41 39 37 35 32 28 21 17 18 18 18 16 11 8 8 8 7 8 8 7 8 9
Wind_Speed
4 4 2 6 6 6 5 5 4 3 6 7 6 4 8 8 7 7 7 8 7 7 7 8 8 8 8 6 5 5 4 4 3 2 2 1 1 1 0 1 2 2 2 2
6 3 8 6 3 3 2 3 3 2 7 7 6 2 5 7 10 10 10 9 9 7 6 8 7 7 7 7 6 5 5 4 3 2 2 2 2 1 1 1 1 2 2 2
4 8 6 4 3 2 1 4 5 5 6 5 7 2 3 4 5 5 7 8 10 11 10 9 9 8 7 7 7 6 5 4 4 3 2 1 1 1 1 0 0 1 2 2
5 7 4 3 4 3 3 5 6 6 6 3 5 3 4 5 4 7 8 8 9 10 9 9 9 9 8 7 6 5 5 4 4 3 3 3 2 2 1 1 1 1 1 1
5 3 2 4 6 4 5 4 4 5 6 4 2 3 5 2 5 9 10 10 10 11 10 10 10 10 8 8 7 5 5 4 4 4 4 3 2 1 1 1 1 0 1 1
7 4 4 6 5 3 3 4 6 6 6 3 3 4 4 5 9 8 9 10 10 10 10 10 8 8 7 7 6 6 5 4 4 4 4 4 4 3 2 1 1 0 0 1
6 6 5 3 1 3 6 8 5 6 5 3 3 3 7 9 8 9 10 10 10 10 10 10 9 9 9 9 8 7 6 5 4 4 4 4 4 3 3 2 1 1 0 1
3 7 5 3 5 4 3 10 8 5 4 3 2 2 6 6 5 6 6 7 9 10 9 10 11 11 10 10 9 8 7 6 5 5 4 3 3 2 2 1 1 1 1 1
5 7 7 5 4 7 3 4 9 8 3 1 2 2 4 1 4 5 6 8 10 10 11 10 10 10 10 10 10 10 9 7 6 5 4 3 3 3 2 2 1 1 0 0
7 5 8 6 1 2 7 7 6 6 5 1 2 2 4 5 6 7 8 10 9 9 9 10 10 10 9 9 8 8 8 8 6 6 5 4 3 3 2 2 2 1 1 1
7 5 7 3 3 6 3 4 6 5 6 7 3 6 8 11 10 10 9 9 10 10 10 9 9 9 9 8 8 8 7 7 6 6 5 4 3 3 2 2 2 2 1 2
5 6 4 7 6 6 7 7 8 6 3 5 5 7 5 10 10 10 11 10 10 10 9 8 8 8 8 8 8 8 7 7 7 6 5 4 4 3 3 2 2 2 2 2
4 6 1 8 9 5 1 3 6 7 6 5 5 6 3 5 7 8 10 10 9 9 8 7 7 8 8 8 7 7 7 7 6 6 5 5 4 4 3 3 2 2 3 3
6 6 8 8 8 3 3 3 2 7 5 5 7 7 4 6 8 8 9 10 9 9 9 8 7 7 7 7 7 7 7 6 6 6 6 5 4 4 4 3 3 3 3 3
6 4 3 4 5 2 2 4 2 3 8 9 8 9 10 10 12 11 11 10 10 9 9 9 8 7 7 7 6 6 6 6 6 7 6 5 4 4 4 4 4 4 3 3
4 3 2 2 2 2 2 4 2 2 3 5 6 5 6 7 7 8 9 11 11 10 10 9 9 8 8 7 7 7 6 6 7 7 6 5 5 5 4 4 4 4 3 3
2 4 3 2 3 3 3 5 2 2 1 6 7 7 6 8 10 11 11 12 12 11 10 9 9 8 8 8 7 7 6 6 7 7 6 6 6 5 5 5 4 4 4 4
4 3 3 1 2 3 9 4 3 1 1 2 4 6 10 12 10 9 10 12 12 11 11 10 9 8 7 7 7 7 6 6 6 6 6 5 6 5 5 5 5 4 3 4
7 7 4 3 2 4 6 3 2 3 3 1 5 7 8 9 8 3 3 8 11 11 10 9 9 8 8 8 8 8 7 6 6 6 5 5 6 6 5 5 4 4 4 4
3 5 6 4 4 5 7 6 1 7 2 4 5 9 9 9 6 5 5 5 7 7 7 7 8 8 8 8 8 8 7 6 6 6 5 5 5 5 5 5 4 3 4 4
3 3 4 4 4 6 7 5 3 4 6 4 4 7 7 6 7 7 6 6 7 7 8 8 9 8 7 8 9 9 7 6 6 6 6 5 5 5 5 4 4 4 4 4
3 2 3 4 3 7 5 2 3 6 4 2 4 5 6 6 6 6 6 7 8 8 9 9 9 7 6 8 9 8 6 5 6 6 6 5 5 4 4 4 4 4 5 5
2 5 5 6 7 5 2 2 2 5 4 2 4 6 9 9 7 7 7 7 8 9 8 8 9 7 5 6 8 8 6 6 6 6 6 5 4 3 4 4 4 4 4 4
4 2 2 1 2 1 2 4 4 4 5 4 6 9 11 10 8 7 7 6 7 7 8 8 9 8 5 5 6 7 7 7 7 6 5 5 4 3 3 2 2 3 3 4
4 2 2 0 2 4 4 4 4 5 7 8 7 6 9 12 9 8 6 6 6 6 6 7 8 8 7 6 6 6 6 7 7 6 5 5 4 4 3 2 2 2 2 4
2 1 1 3 4 2 3 1 3 6 6 7 6 6 6 8 9 7 6 5 5 6 6 6 7 7 6 6 6 5 6 7 7 5 5 4 4 3 3 3 2 4 1 2
Wind_Direction
344 57 268 245 213 191 187 168 173 187 140 115 134 160 181 182 178 181 177 173 180 178 174 163 158 152 147 148 155 158 152 159 148 140 146 148 180 182 174 192 183 182 181 177
15 291 244 239 220 182 172 150 173 141 137 126 132 159 199 191 191 187 184 181 184 175 164 165 160 159 160 162 163 160 161 162 161 162 160 160 153 176 193 215 192 201 194 192
217 245 250 248 224 165 228 195 198 154 114 107 111 15 255 230 209 187 186 190 184 178 174 173 170 171 165 167 169 166 167 163 169 163 132 104 76 35 36 20 255 241 216 206
249 250 248 239 234 172 235 220 165 153 124 165 145 176 257 229 232 203 197 191 184 179 174 173 169 169 172 174 167 160 161 160 163 154 141 146 152 165 211 204 203 233 216 216
264 264 252 242 237 201 216 206 157 139 123 94 81 124 269 197 224 216 200 192 186 178 175 175 175 173 171 169 165 160 154 157 159 151 151 145 146 167 166 132 137 310 311 272
256 265 225 226 244 209 150 61 35 53 73 69 231 147 253 221 213 204 194 189 179 176 175 176 174 164 164 166 163 158 153 158 158 152 152 151 151 149 134 129 157 237 322 320
308 299 275 232 20 350 84 83 35 10 22 258 252 134 235 233 211 189 185 185 171 169 171 171 170 169 170 170 169 165 162 165 164 157 158 162 161 150 149 157 165 167 324 326
234 280 265 221 175 188 158 130 150 181 200 265 318 214 252 228 188 169 165 168 166 170 171 176 178 176 175 173 170 168 168 169 167 164 166 161 153 144 148 158 157 168 197 221
195 251 274 249 201 160 166 171 164 134 131 98 283 297 324 45 143 149 157 162 172 176 175 178 179 177 174 173 174 172 170 168 169 169 160 153 151 146 146 145 139 144 140 122
179 248 279 275 270 226 170 156 97 109 132 156 273 248 218 203 192 179 167 169 175 174 175 176 176 176 173 173 172 169 169 169 171 172 171 160 157 156 153 130 119 115 88 75
176 201 288 338 195 219 200 133 115 123 147 146 180 255 220 191 190 181 174 174 178 174 175 175 175 173 166 163 165 167 169 167 168 168 164 155 158 159 147 135 131 127 107 99
183 147 239 261 255 212 193 183 146 148 196 152 156 255 239 184 183 171 166 169 171 170 170 166 163 158 160 165 165 169 170 171 173 167 158 157 155 148 141 138 136 126 112 103
152 124 112 329 334 348 242 195 155 134 123 141 150 249 256 166 164 165 161 160 163 160 154 148 149 154 162 166 165 166 166 167 164 156 150 150 151 145 144 143 136 118 107 104
124 122 158 195 220 246 287 283 163 128 146 178 195 206 207 173 169 168 160 153 155 158 154 151 153 160 162 163 164 162 165 161 153 146 146 151 156 153 150 142 128 114 110 107
96 130 172 204 223 225 250 275 271 186 180 174 203 193 204 189 179 173 163 153 150 156 158 160 160 158 154 150 155 156 153 154 148 141 142 147 148 144 136 129 119 113 110 108
59 121 103 333 343 4 321 300 294 263 188 164 158 209 208 165 150 150 156 155 154 160 163 165 160 156 156 154 155 154 153 150 143 143 145 143 136 132 127 122 118 112 103 95
35 96 92 279 316 30 286 253 234 268 222 159 176 207 163 139 153 165 165 163 165 168 167 165 164 165 163 159 155 154 153 144 139 143 145 145 142 136 137 131 118 115 112 102
138 104 121 126 55 223 242 240 179 156 268 182 169 164 155 157 164 165 165 166 169 168 168 171 168 168 163 151 139 134 134 134 136 139 143 144 143 141 138 130 129 126 120 117
153 141 123 121 166 265 288 286 184 140 308 311 143 140 140 132 101 85 182 168 168 169 168 169 168 159 148 143 137 131 127 129 130 135 139 144 143 144 142 142 143 138 127 120
89 117 125 133 157 218 249 280 233 101 340 303 144 143 142 124 127 205 201 160 149 147 151 154 148 139 140 142 136 130 134 136 139 139 136 134 136 143 147 148 141 131 128 127
36 63 133 154 188 248 254 285 63 104 232 262 150 147 144 148 173 179 160 145 139 134 130 130 130 134 140 141 138 136 141 151 148 135 129 127 130 136 139 137 137 132 127 123
174 158 178 148 175 247 289 46 133 199 216 165 134 133 123 122 120 126 129 131 129 124 119 121 122 123 132 136 138 140 148 146 131 129 127 126 130 137 131 129 133 132 136 133
180 188 185 180 205 236 291 158 172 148 127 111 123 123 120 115 115 116 118 123 125 123 122 120 120 118 123 136 139 141 146 136 131 129 128 127 124 117 125 137 147 144 147 150
315 2 93 73 283 325 41 62 56 85 108 107 121 126 120 115 120 118 119 122 121 122 126 123 119 120 123 132 134 141 145 141 138 138 134 131 130 123 117 124 142 154 166 168
294 335 47 34 309 23 16 39 66 67 83 87 96 115 126 127 126 126 129 131 132 131 132 131 136 138 145 143 139 144 145 141 139 141 142 141 142 143 130 113 113 157 183 187
314 279 176 225 240 177 256 292 86 84 87 93 96 94 107 122 126 125 127 127 131 135 138 137 139 141 145 145 147 150 150 149 147 147 152 155 153 147 142 134 93 43 86 162